Regional Weather Roundup
Issued by NWS Little Rock, AR

Home | Current Version | Previous Version | Text Only | Print | Product List | Glossary On
Versions: 1 2 3 4 5 6 7 8 9 10 11 12 13 14 15 16 17 18 19 20 21 22 23 24 25 26 27 28 29 30 31 32 33 34 35 36 37 38 39 40 41 42 43 44 45 46
000
ASUS44 KLZK 231205
RWRLZK

WEATHER ROUNDUP FOR ARKANSAS
NATIONAL WEATHER SERVICE LITTLE ROCK AR
700 AM CDT SAT MAY 23 2015

NOTE: "FAIR" INDICATES FEW OR NO CLOUDS BELOW 12,000 FEET WITH NO
SIGNIFICANT WEATHER AND/OR OBSTRUCTIONS TO VISIBILITY.

ARZ001-003-010-029-231300-
NORTHWEST ARKANSAS

CITY           SKY/WX    TMP DP  RH WIND       PRES   REMARKS
FAYETTEVILLE   CLOUDY    57  56  96 E5        30.23R
6HR MIN TEMP:  56; 6HR MAX TEMP:  61; 6HR PCP:  0.26;

FORT SMITH     CLOUDY    60  57  89 E9        30.22R
6HR MIN TEMP:  58; 6HR MAX TEMP:  60; 6HR PCP:  0.97;

HARRISON       CLOUDY    57  51  80 SE6       30.26R
6HR MIN TEMP:  56; 6HR MAX TEMP:  57; 6HR PCP: TRACE;

BENTONVILLE    CLOUDY    57  54  88 SE7       30.23R
                                      6HR PCP:  0.13;

ROGERS         LGT RAIN  56  55  97 SE9       30.24R
6HR MIN TEMP:  56; 6HR MAX TEMP:  59;

SILOAM SPGS    CLOUDY    57  52  82 SE6       30.23R
6HR MIN TEMP:  55; 6HR MAX TEMP:  57; 6HR PCP:  0.36;

HIGHFILL       CLOUDY    58  56  93 E6        30.22R
6HR MIN TEMP:  57; 6HR MAX TEMP:  59; 6HR PCP:  0.17;

SPRINGDALE     LGT RAIN  57  55  94 SE6       30.25R
$$

ARZ004-005-016-231300-
NORTH CENTRAL ARKANSAS

CITY           SKY/WX    TMP DP  RH WIND       PRES   REMARKS
BATESVILLE     CLOUDY    59  55  88 CALM      30.28R
6HR MIN TEMP:  57; 6HR MAX TEMP:  61;

FLIPPIN        PTSUNNY   57  52  82 CALM      30.25S
6HR MIN TEMP:  55; 6HR MAX TEMP:  57;

MTN HOME       CLOUDY    59  53  80 E5        30.25S
6HR MIN TEMP:  56; 6HR MAX TEMP:  59; 6HR PCP: TRACE;

$$

ARZ040-041-231300-
WEST CENTRAL ARKANSAS

CITY           SKY/WX    TMP DP  RH WIND       PRES   REMARKS
MENA           CLOUDY    61  59  94 CALM      30.23R
MOUNT IDA      CLOUDY    60  58  92 CALM      30.22R FOG
6HR MIN TEMP:  59; 6HR MAX TEMP:  60; 6HR PCP: TRACE;

$$

ARZ009-017-025-026-028-231300-
NORTHEAST ARKANSAS

CITY           SKY/WX    TMP DP  RH WIND       PRES   REMARKS
CORNING          N/A     63  57  82 E6        30.29S
JONESBORO      PTSUNNY   61  57  87 NE5       30.28R
6HR MIN TEMP:  59; 6HR MAX TEMP:  62;

NEWPORT        CLOUDY    63  58  83 CALM      30.29R
6HR MIN TEMP:  61; 6HR MAX TEMP:  64;

WALNUT RIDGE   PTSUNNY   61  54  77 NE6       30.29S
6HR MIN TEMP:  61; 6HR MAX TEMP:  63;

BLYTHEVILLE    CLOUDY    61  56  83 E5        30.30R
6HR MIN TEMP:  59; 6HR MAX TEMP:  61;

$$

ARZ022-023-033-042-044-231300-
CENTRAL ARKANSAS

CITY           SKY/WX    TMP DP  RH WIND       PRES   REMARKS
LITTLE ROCK    CLOUDY    65  56  72 CALM      30.25R
6HR MIN TEMP:  61; 6HR MAX TEMP:  65;

N LITTLE ROCK    N/A     62  58  87 E5        30.25R
6HR MIN TEMP:  60; 6HR MAX TEMP:  63;

JACKSONVILLE   CLOUDY    62  57  81 NE3       30.24S
6HR MIN TEMP:  59; 6HR MAX TEMP:  62;

SEARCY         PTSUNNY   63  56  78 NE6       30.28R
6HR MIN TEMP:  62; 6HR MAX TEMP:  63;

HOT SPRINGS    CLOUDY    60  57  89 E5        30.24R
6HR MIN TEMP:  58; 6HR MAX TEMP:  61; 6HR PCP: TRACE;

RUSSELLVILLE   CLOUDY    62  54  74 CALM      30.25R
6HR MIN TEMP:  60; 6HR MAX TEMP:  64; 6HR PCP: TRACE;

CLINTON        CLOUDY    59  57  94 CALM      30.28S FOG
$$

ARZ036-231300-
EAST ARKANSAS

CITY           SKY/WX    TMP DP  RH WIND       PRES   REMARKS
WEST MEMPHIS   CLOUDY    63  55  75 E3        30.27R
6HR MIN TEMP:  59; 6HR MAX TEMP:  64;

$$

ARZ050-053-066-070-073-231300-
SOUTHWEST ARKANSAS

CITY           SKY/WX    TMP DP  RH WIND       PRES   REMARKS
ARKADELPHIA    CLOUDY    61  60  96 NE5       30.23R
6HR MIN TEMP:  60; 6HR MAX TEMP:  63;

CAMDEN         PTCLDY    57  55  94 CALM      30.22S FOG
TEXARKANA      CLOUDY    62  57  83 E3        30.20R
6HR MIN TEMP:  62; 6HR MAX TEMP:  65;

EL DORADO      CLEAR     60  57  89 NE3       30.21R
6HR MIN TEMP:  58; 6HR MAX TEMP:  61;

DE QUEEN       CLOUDY    62  58  86 E5        30.19R
6HR MIN TEMP:  61; 6HR MAX TEMP:  62;

$$

ARZ056-057-069-231300-
SOUTHEAST ARKANSAS

CITY           SKY/WX    TMP DP  RH WIND       PRES   REMARKS
PINE BLUFF     CLOUDY    63  58  83 NE3       30.25R
6HR MIN TEMP:  59; 6HR MAX TEMP:  63;

STUTTGART      PTSUNNY   64  55  72 E5        30.26R
6HR MIN TEMP:  63; 6HR MAX TEMP:  64;

MONTICELLO     MOSUNNY   61  57  87 E5        30.23R
6HR MIN TEMP:  58; 6HR MAX TEMP:  61;


$$




USA.gov is the U.S. government's official web portal to all federal, state and local government web resources and services.